Starlink 11295

operational
NORAD ID: 61536 Int'l Des: 2024-184 Owner: SPXS Country: US Constellation: starlink
LEOCIRCULAR

About Starlink 11295

Description loading...

Live Position

Loading 3D Globe...

Upcoming Passes

Altitude History

Altitude vs Time

uPlot chart will show altitude changes over time

Two-Line Element Set

1 61536U 24184E 26035.99664633 .00001285 00000-0 15484-4 0 9994
2 61536 53.1601 37.3424 0002253 147.5284 212.5873 15.69696619 75283
Epoch: Feb 4, 2026 • Age: 9 hours

Current Status

Altitude 362.5 km
Velocity 7.70 km/s
Sub-Earth Point 33.58°N, 150.44°E
Launch Date Oct 15, 2024
Age 1.3 years
Type internet

Technical Details

Classification Payload
Mass 960.00 kg
Dry Mass 910.00 kg
Total Mass 960.00 kg
Length 0.30 m
Diameter 4.10 m
Span 29.00 m
Shape Box + pan
Manufacturer SPXS
Bus Type Starlink V2MD
Phase Status In Orbit
Owner/State SPXS/US

Large Constellations

Loading constellations...